This is the latest recevied weather packets stored in our database for station/object EA4GRN-10. If no packets are shown the sender has not sent any weather packets the latest 10 day(s).
| Time | Temp. | Humidity | Pressure | Rain* | Wind** | Luminosity | Snow |
|---|---|---|---|---|---|---|---|
| 1787914663 | 30° C | 41% | 1020.2 hPa | - | - | - | - |
| 1787913763 | 30° C | 42% | 1020.1 hPa | - | - | - | - |
| 1787912863 | 29.44° C | 41% | 1020.2 hPa | - | - | - | - |
| 1787911963 | 28.89° C | 43% | 1020.3 hPa | - | - | - | - |
| 1787911062 | 28.89° C | 43% | 1020.3 hPa | - | - | - | - |
| 1787910162 | 28.33° C | 44% | 1020.3 hPa | - | - | - | - |
| 1787909262 | 28.33° C | 44% | 1020.3 hPa | - | - | - | - |
| 1787908362 | 27.78° C | 45% | 1020.2 hPa | - | - | - | - |
| 1787907462 | 27.22° C | 45% | 1020.2 hPa | - | - | - | - |
| 1787906562 | 26.67° C | 46% | 1020.1 hPa | - | - | - | - |
| 1787905661 | 26.67° C | 46% | 1020 hPa | - | - | - | - |
| 1787904761 | 26.67° C | 46% | 1019.9 hPa | - | - | - | - |
| 1787903861 | 26.67° C | 46% | 1019.9 hPa | - | - | - | - |
| 1787902961 | 26.11° C | 46% | 1019.8 hPa | - | - | - | - |
| 1787902061 | 26.11° C | 45% | 1019.7 hPa | - | - | - | - |
| 1787901161 | 26.11° C | 46% | 1019.5 hPa | - | - | - | - |
| 1787900260 | 26.11° C | 45% | 1019.5 hPa | - | - | - | - |
| 1787899360 | 26.11° C | 45% | 1019.5 hPa | - | - | - | - |
| 1787898460 | 26.67° C | 44% | 1019.2 hPa | - | - | - | - |
| 1787897560 | 27.22° C | 44% | 1019 hPa | - | - | - | - |
| 1787896660 | 26.67° C | 44% | 1018.9 hPa | - | - | - | - |
| 1787895759 | 27.22° C | 44% | 1018.8 hPa | - | - | - | - |
| 1787894863 | 27.22° C | 44% | 1018.8 hPa | - | - | - | - |
| 1787893962 | 26.67° C | 44% | 1018.7 hPa | - | - | - | - |
| 1787893062 | 26.67° C | 44% | 1018.7 hPa | - | - | - | - |
* Rain since midnight (hover to see other rain measurements)
** Current wind speed in m/s (hover to see current wind gust speed)